Time,TemperatureF,DewpointF,PressureIn,WindDirection,WindDirectionDegrees,WindSpeedMPH,WindSpeedGustMPH,Humidity,HourlyPrecipIn,Conditions,Clouds,dailyrainin,SoftwareType,DateUTC
2013-02-17 00:00:00,22.0,9.8,29.92,NW,304,8.0,15.0,59,0.00,,,0.00,Wunderground v.1.15,2013-02-17 05:00:00,
2013-02-17 00:01:00,22.0,9.8,29.92,NW,322,9.0,16.0,59,0.00,,,0.00,Wunderground v.1.15,2013-02-17 05:01:00,
2013-02-17 00:03:00,22.0,10.2,29.92,NW,321,9.0,16.0,60,0.00,,,0.00,Wunderground v.1.15,2013-02-17 05:03:00,
2013-02-17 00:05:00,22.0,10.2,29.92,SSW,208,11.0,16.0,60,0.00,,,0.00,Wunderground v.1.15,2013-02-17 05:05:00,
2013-02-17 00:10:00,21.9,9.7,29.92,North,5,7.0,9.0,59,0.00,,,0.00,Wunderground v.1.15,2013-02-17 05:10:00,
2013-02-17 00:16:00,21.7,9.9,29.94,NNW,347,6.0,17.0,60,0.00,,,0.00,Wunderground v.1.15,2013-02-17 05:16:00,
2013-02-17 00:21:00,21.7,9.6,29.94,WNW,300,9.0,12.0,59,0.00,,,0.00,Wunderground v.1.15,2013-02-17 05:21:00,
2013-02-17 00:27:00,21.7,9.2,29.94,NNW,330,13.0,17.0,58,0.00,,,0.00,Wunderground v.1.15,2013-02-17 05:27:00,
2013-02-17 00:32:00,21.7,9.2,29.94,NNW,341,12.0,16.0,58,0.00,,,0.00,Wunderground v.1.15,2013-02-17 05:32:00,
2013-02-17 00:37:00,21.7,8.8,29.94,WNW,299,13.0,34.0,57,0.00,,,0.00,Wunderground v.1.15,2013-02-17 05:37:00,
2013-02-17 00:42:00,21.7,8.4,29.93,NW,315,17.0,21.0,56,0.00,,,0.00,Wunderground v.1.15,2013-02-17 05:42:00,
2013-02-17 00:47:00,21.6,8.7,29.93,NW,321,14.0,21.0,57,0.00,,,0.00,Wunderground v.1.15,2013-02-17 05:47:00,
2013-02-17 00:52:00,21.6,8.3,29.93,NW,305,15.0,19.0,56,0.00,,,0.00,Wunderground v.1.15,2013-02-17 05:52:00,
2013-02-17 00:57:00,21.5,8.6,29.93,NW,317,16.0,26.0,57,0.00,,,0.00,Wunderground v.1.15,2013-02-17 05:57:00,
2013-02-17 01:02:00,21.4,8.5,29.93,NE,40,14.0,14.0,57,0.00,,,0.00,Wunderground v.1.15,2013-02-17 06:02:00,
2013-02-17 01:08:00,21.2,8.3,29.93,WNW,290,13.0,21.0,57,0.00,,,0.00,Wunderground v.1.15,2013-02-17 06:08:00,
2013-02-17 01:13:00,21.2,8.3,29.94,NNW,327,14.0,15.0,57,0.00,,,0.00,Wunderground v.1.15,2013-02-17 06:13:00,
2013-02-17 01:18:00,21.1,8.2,29.94,NW,304,14.0,25.0,57,0.00,,,0.00,Wunderground v.1.15,2013-02-17 06:18:00,
2013-02-17 01:23:00,21.1,8.2,29.94,NNW,338,12.0,13.0,57,0.00,,,0.00,Wunderground v.1.15,2013-02-17 06:23:00,
2013-02-17 01:28:00,21.0,8.1,29.94,NNW,329,13.0,25.0,57,0.00,,,0.00,Wunderground v.1.15,2013-02-17 06:28:00,
2013-02-17 01:33:00,20.9,8.0,29.94,NNW,329,15.0,20.0,57,0.00,,,0.00,Wunderground v.1.15,2013-02-17 06:33:00,
2013-02-17 01:38:00,20.9,7.6,29.94,NNW,335,14.0,24.0,56,0.00,,,0.00,Wunderground v.1.15,2013-02-17 06:38:00,
2013-02-17 01:43:00,20.9,8.0,29.94,NNW,333,15.0,22.0,57,0.00,,,0.00,Wunderground v.1.15,2013-02-17 06:43:00,
2013-02-17 01:48:00,20.8,7.6,29.94,WNW,286,17.0,24.0,56,0.00,,,0.00,Wunderground v.1.15,2013-02-17 06:48:00,
2013-02-17 01:53:00,20.8,7.6,29.94,North,350,18.0,24.0,56,0.00,,,0.00,Wunderground v.1.15,2013-02-17 06:53:00,
2013-02-17 01:59:00,20.7,7.5,29.94,NNW,337,16.0,24.0,56,0.00,,,0.00,Wunderground v.1.15,2013-02-17 06:59:00,
2013-02-17 02:04:00,20.6,7.4,29.94,NW,319,14.0,20.0,56,0.00,,,0.00,Wunderground v.1.15,2013-02-17 07:04:00,
2013-02-17 02:09:00,20.6,7.4,29.94,NW,310,17.0,28.0,56,0.00,,,0.00,Wunderground v.1.15,2013-02-17 07:09:00,
2013-02-17 02:14:00,20.6,7.8,29.94,NW,306,16.0,18.0,57,0.00,,,0.00,Wunderground v.1.15,2013-02-17 07:14:00,
2013-02-17 02:19:00,20.4,7.6,29.94,WNW,294,11.0,36.0,57,0.00,,,0.00,Wunderground v.1.15,2013-02-17 07:19:00,
2013-02-17 02:24:00,20.4,7.6,29.94,NNW,333,14.0,18.0,57,0.00,,,0.00,Wunderground v.1.15,2013-02-17 07:24:00,
2013-02-17 02:29:00,20.4,7.6,29.93,NW,316,15.0,26.0,57,0.00,,,0.00,Wunderground v.1.15,2013-02-17 07:29:00,
2013-02-17 02:34:00,20.4,7.6,29.93,West,281,14.0,25.0,57,0.00,,,0.00,Wunderground v.1.15,2013-02-17 07:34:00,
2013-02-17 02:39:00,20.3,7.5,29.93,WNW,284,16.0,25.0,57,0.00,,,0.00,Wunderground v.1.15,2013-02-17 07:39:00,
2013-02-17 02:44:00,20.3,7.5,29.94,NNW,333,15.0,22.0,57,0.00,,,0.00,Wunderground v.1.15,2013-02-17 07:44:00,
2013-02-17 02:50:00,20.2,7.4,29.94,North,5,15.0,15.0,57,0.00,,,0.00,Wunderground v.1.15,2013-02-17 07:50:00,
2013-02-17 02:55:00,20.2,7.8,29.94,NNW,338,15.0,17.0,58,0.00,,,0.00,Wunderground v.1.15,2013-02-17 07:55:00,
2013-02-17 03:00:00,20.2,7.4,29.94,NW,316,14.0,14.0,57,0.00,,,0.00,Wunderground v.1.15,2013-02-17 08:00:00,
2013-02-17 03:05:00,20.1,7.7,29.94,WNW,300,15.0,16.0,58,0.00,,,0.00,Wunderground v.1.15,2013-02-17 08:05:00,
2013-02-17 03:10:00,20.1,7.7,29.94,NW,325,18.0,22.0,58,0.00,,,0.00,Wunderground v.1.15,2013-02-17 08:10:00,
2013-02-17 03:15:00,20.1,7.7,29.95,NW,304,18.0,34.0,58,0.00,,,0.00,Wunderground v.1.15,2013-02-17 08:15:00,
2013-02-17 03:20:00,20.0,7.6,29.95,NNW,332,16.0,16.0,58,0.00,,,0.00,Wunderground v.1.15,2013-02-17 08:20:00,
2013-02-17 03:25:00,20.0,7.2,29.95,NNW,346,14.0,25.0,57,0.00,,,0.00,Wunderground v.1.15,2013-02-17 08:25:00,
2013-02-17 03:30:00,20.0,7.6,29.95,NW,322,12.0,18.0,58,0.00,,,0.00,Wunderground v.1.15,2013-02-17 08:30:00,
2013-02-17 03:35:00,19.9,7.9,29.95,NW,307,10.0,18.0,59,0.00,,,0.00,Wunderground v.1.15,2013-02-17 08:35:00,
2013-02-17 03:40:00,19.9,7.5,29.95,WNW,302,11.0,13.0,58,0.00,,,0.00,Wunderground v.1.15,2013-02-17 08:40:00,
2013-02-17 03:46:00,20.0,7.6,29.95,NNW,331,14.0,22.0,58,0.00,,,0.00,Wunderground v.1.15,2013-02-17 08:46:00,
2013-02-17 03:51:00,20.0,7.6,29.95,NW,319,14.0,19.0,58,0.00,,,0.00,Wunderground v.1.15,2013-02-17 08:51:00,
2013-02-17 03:56:00,20.0,7.6,29.95,NW,309,15.0,27.0,58,0.00,,,0.00,Wunderground v.1.15,2013-02-17 08:56:00,
2013-02-17 04:01:00,20.0,7.6,29.95,NNE,13,14.0,19.0,58,0.00,,,0.00,Wunderground v.1.15,2013-02-17 09:01:00,
2013-02-17 04:06:00,20.0,7.6,29.95,West,276,15.0,23.0,58,0.00,,,0.00,Wunderground v.1.15,2013-02-17 09:06:00,
2013-02-17 04:11:00,20.0,8.0,29.95,NW,319,15.0,26.0,59,0.00,,,0.00,Wunderground v.1.15,2013-02-17 09:11:00,
2013-02-17 04:16:00,20.0,7.6,29.95,NNW,332,16.0,33.0,58,0.00,,,0.00,Wunderground v.1.15,2013-02-17 09:16:00,
2013-02-17 04:22:00,20.0,7.6,29.95,NW,324,17.0,27.0,58,0.00,,,0.00,Wunderground v.1.15,2013-02-17 09:22:00,
2013-02-17 04:28:00,19.9,7.5,29.95,NW,313,17.0,27.0,58,0.00,,,0.00,Wunderground v.1.15,2013-02-17 09:28:00,
2013-02-17 04:33:00,19.9,7.5,29.95,NNW,332,17.0,28.0,58,0.00,,,0.00,Wunderground v.1.15,2013-02-17 09:33:00,
2013-02-17 04:38:00,19.8,7.4,29.95,NW,323,16.0,28.0,58,0.00,,,0.00,Wunderground v.1.15,2013-02-17 09:38:00,
2013-02-17 04:43:00,19.8,7.4,29.95,NW,308,15.0,24.0,58,0.00,,,0.00,Wunderground v.1.15,2013-02-17 09:43:00,
2013-02-17 04:48:00,19.8,7.4,29.95,NW,311,20.0,34.0,58,0.00,,,0.00,Wunderground v.1.15,2013-02-17 09:48:00,
2013-02-17 04:53:00,19.8,7.4,29.95,NW,324,20.0,21.0,58,0.00,,,0.00,Wunderground v.1.15,2013-02-17 09:53:00,
2013-02-17 04:58:00,19.9,7.5,29.97,NNW,334,18.0,22.0,58,0.00,,,0.00,Wunderground v.1.15,2013-02-17 09:58:00,
2013-02-17 05:03:00,19.9,7.5,29.97,NNE,25,17.0,21.0,58,0.00,,,0.00,Wunderground v.1.15,2013-02-17 10:03:00,
2013-02-17 05:08:00,19.9,7.5,29.97,NNW,329,15.0,23.0,58,0.00,,,0.00,Wunderground v.1.15,2013-02-17 10:08:00,
2013-02-17 05:13:00,19.9,7.1,29.97,NNW,345,15.0,17.0,57,0.00,,,0.00,Wunderground v.1.15,2013-02-17 10:13:00,
2013-02-17 05:19:00,19.9,7.1,29.97,WNW,302,17.0,39.0,57,0.00,,,0.00,Wunderground v.1.15,2013-02-17 10:19:00,
2013-02-17 05:24:00,20.0,7.2,29.97,North,5,15.0,21.0,57,0.00,,,0.00,Wunderground v.1.15,2013-02-17 10:24:00,
2013-02-17 05:29:00,20.0,7.2,29.97,NW,321,14.0,21.0,57,0.00,,,0.00,Wunderground v.1.15,2013-02-17 10:29:00,
2013-02-17 05:34:00,20.1,7.3,29.97,NW,323,18.0,25.0,57,0.00,,,0.00,Wunderground v.1.15,2013-02-17 10:34:00,
2013-02-17 05:40:00,20.1,7.3,29.97,NNW,335,20.0,20.0,57,0.00,,,0.00,Wunderground v.1.15,2013-02-17 10:40:00,
2013-02-17 05:45:00,20.1,7.7,29.97,NW,307,16.0,22.0,58,0.00,,,0.00,Wunderground v.1.15,2013-02-17 10:45:00,
2013-02-17 05:50:00,20.2,7.4,29.97,NNW,347,15.0,21.0,57,0.00,,,0.00,Wunderground v.1.15,2013-02-17 10:50:00,
2013-02-17 05:55:00,20.3,7.1,29.97,North,350,20.0,45.0,56,0.00,,,0.00,Wunderground v.1.15,2013-02-17 10:55:00,
2013-02-17 06:01:00,20.2,7.8,29.97,WNW,303,21.0,21.0,58,0.00,,,0.00,Wunderground v.1.15,2013-02-17 11:01:00,
2013-02-17 06:06:00,20.2,7.8,29.97,West,277,17.0,22.0,58,0.00,,,0.00,Wunderground v.1.15,2013-02-17 11:06:00,
2013-02-17 06:11:00,20.3,7.5,29.97,NW,315,18.0,32.0,57,0.00,,,0.00,Wunderground v.1.15,2013-02-17 11:11:00,
2013-02-17 06:16:00,20.3,7.9,29.98,WNW,302,19.0,32.0,58,0.00,,,0.00,Wunderground v.1.15,2013-02-17 11:16:00,
2013-02-17 06:21:00,20.2,7.8,29.98,NW,315,15.0,17.0,58,0.00,,,0.00,Wunderground v.1.15,2013-02-17 11:21:00,
2013-02-17 06:27:00,20.2,7.8,29.99,North,5,16.0,24.0,58,0.00,,,0.00,Wunderground v.1.15,2013-02-17 11:27:00,
2013-02-17 06:32:00,20.2,7.8,29.99,NNW,342,18.0,31.0,58,0.00,,,0.00,Wunderground v.1.15,2013-02-17 11:32:00,
2013-02-17 06:37:00,20.2,8.1,29.99,North,5,16.0,31.0,59,0.00,,,0.00,Wunderground v.1.15,2013-02-17 11:37:00,
2013-02-17 06:43:00,20.2,8.1,29.99,WNW,300,14.0,35.0,59,0.00,,,0.00,Wunderground v.1.15,2013-02-17 11:43:00,
2013-02-17 06:48:00,20.3,8.2,29.99,WNW,298,16.0,35.0,59,0.00,,,0.00,Wunderground v.1.15,2013-02-17 11:48:00,
2013-02-17 06:53:00,20.3,8.2,29.99,NW,317,16.0,24.0,59,0.00,,,0.00,Wunderground v.1.15,2013-02-17 11:53:00,
2013-02-17 06:58:00,20.2,8.1,30.00,NW,316,15.0,24.0,59,0.00,,,0.00,Wunderground v.1.15,2013-02-17 11:58:00,
2013-02-17 07:03:00,20.2,8.1,30.00,NW,304,16.0,32.0,59,0.00,,,0.00,Wunderground v.1.15,2013-02-17 12:03:00,
2013-02-17 07:08:00,20.2,8.1,30.00,North,9,16.0,32.0,59,0.00,,,0.00,Wunderground v.1.15,2013-02-17 12:08:00,
2013-02-17 07:13:00,20.2,8.1,30.01,NNW,338,16.0,34.0,59,0.00,,,0.00,Wunderground v.1.15,2013-02-17 12:13:00,
2013-02-17 07:18:00,20.3,8.2,30.01,NW,323,18.0,34.0,59,0.00,,,0.00,Wunderground v.1.15,2013-02-17 12:18:00,
2013-02-17 07:23:00,20.3,8.2,30.01,WNW,293,21.0,30.0,59,0.00,,,0.00,Wunderground v.1.15,2013-02-17 12:23:00,
2013-02-17 07:28:00,20.3,8.2,30.02,NW,310,20.0,30.0,59,0.00,,,0.00,Wunderground v.1.15,2013-02-17 12:28:00,
2013-02-17 07:33:00,20.4,8.7,30.02,WNW,290,18.0,29.0,60,0.00,,,0.00,Wunderground v.1.15,2013-02-17 12:33:00,
2013-02-17 07:38:00,20.4,8.3,30.02,NW,310,19.0,29.0,59,0.00,,,0.00,Wunderground v.1.15,2013-02-17 12:38:00,
2013-02-17 07:43:00,20.4,8.7,30.03,NW,320,18.0,38.0,60,0.00,,,0.00,Wunderground v.1.15,2013-02-17 12:43:00,
2013-02-17 07:48:00,20.8,9.1,30.03,WNW,299,19.0,47.0,60,0.00,,,0.00,Wunderground v.1.15,2013-02-17 12:48:00,
2013-02-17 07:53:00,21.2,9.1,30.03,WNW,291,22.0,32.0,59,0.00,,,0.00,Wunderground v.1.15,2013-02-17 12:53:00,
2013-02-17 07:58:00,21.6,9.1,30.03,WNW,301,23.0,32.0,58,0.00,,,0.00,Wunderground v.1.15,2013-02-17 12:58:00,
2013-02-17 08:03:00,21.9,9.0,30.03,WNW,290,24.0,40.0,57,0.00,,,0.00,Wunderground v.1.15,2013-02-17 13:03:00,
2013-02-17 08:08:00,22.2,9.3,30.03,NW,310,23.0,40.0,57,0.00,,,0.00,Wunderground v.1.15,2013-02-17 13:08:00,
2013-02-17 08:14:00,22.6,9.6,30.04,WNW,286,23.0,42.0,57,0.00,,,0.00,Wunderground v.1.15,2013-02-17 13:14:00,
2013-02-17 08:19:00,22.9,9.5,30.04,NW,315,23.0,42.0,56,0.00,,,0.00,Wunderground v.1.15,2013-02-17 13:19:00,
2013-02-17 08:24:00,22.8,9.4,30.04,NNW,331,24.0,46.0,56,0.00,,,0.00,Wunderground v.1.15,2013-02-17 13:24:00,
2013-02-17 08:30:00,23.1,9.7,30.05,NW,323,20.0,20.0,56,0.00,,,0.00,Wunderground v.1.15,2013-02-17 13:30:00,
2013-02-17 08:35:00,23.5,9.7,30.05,NW,309,20.0,31.0,55,0.00,,,0.00,Wunderground v.1.15,2013-02-17 13:35:00,
2013-02-17 08:40:00,23.8,10.0,30.05,NW,318,23.0,26.0,55,0.00,,,0.00,Wunderground v.1.15,2013-02-17 13:40:00,
2013-02-17 08:45:00,24.1,9.8,30.06,NW,325,23.0,26.0,54,0.00,,,0.00,Wunderground v.1.15,2013-02-17 13:45:00,
2013-02-17 08:51:00,24.2,9.5,30.06,WNW,284,22.0,27.0,53,0.00,,,0.00,Wunderground v.1.15,2013-02-17 13:51:00,
2013-02-17 08:56:00,24.4,9.7,30.06,NW,309,22.0,36.0,53,0.00,,,0.00,Wunderground v.1.15,2013-02-17 13:56:00,
2013-02-17 09:01:00,24.6,9.5,30.06,NNW,331,20.0,25.0,52,0.00,,,0.00,Wunderground v.1.15,2013-02-17 14:01:00,
2013-02-17 09:06:00,24.9,9.7,30.06,NW,319,20.0,32.0,52,0.00,,,0.00,Wunderground v.1.15,2013-02-17 14:06:00,
2013-02-17 09:11:00,25.1,9.9,30.06,NW,305,21.0,21.0,52,0.00,,,0.00,Wunderground v.1.15,2013-02-17 14:11:00,
2013-02-17 09:16:00,25.3,10.1,30.06,NNW,341,22.0,26.0,52,0.00,,,0.00,Wunderground v.1.15,2013-02-17 14:16:00,
2013-02-17 09:21:00,25.5,9.9,30.06,NW,325,20.0,21.0,51,0.00,,,0.00,Wunderground v.1.15,2013-02-17 14:21:00,
2013-02-17 09:26:00,25.9,10.2,30.06,NW,310,20.0,22.0,51,0.00,,,0.00,Wunderground v.1.15,2013-02-17 14:26:00,
2013-02-17 09:31:00,26.5,9.9,30.06,West,272,21.0,21.0,49,0.00,,,0.00,Wunderground v.1.15,2013-02-17 14:31:00,
2013-02-17 09:36:00,26.5,10.3,30.06,North,5,19.0,34.0,50,0.00,,,0.00,Wunderground v.1.15,2013-02-17 14:36:00,
2013-02-17 09:41:00,26.7,10.1,30.06,North,355,18.0,28.0,49,0.00,,,0.00,Wunderground v.1.15,2013-02-17 14:41:00,
2013-02-17 09:47:00,27.1,9.5,30.06,North,360,21.0,28.0,47,0.00,,,0.00,Wunderground v.1.15,2013-02-17 14:47:00,
2013-02-17 09:52:00,27.6,10.0,30.06,NW,310,18.0,21.0,47,0.00,,,0.00,Wunderground v.1.15,2013-02-17 14:52:00,
2013-02-17 09:57:00,27.9,9.8,30.06,North,355,16.0,30.0,46,0.00,,,0.00,Wunderground v.1.15,2013-02-17 14:57:00,
2013-02-17 10:02:00,27.8,9.2,30.06,NNW,331,21.0,33.0,45,0.00,,,0.00,Wunderground v.1.15,2013-02-17 15:02:00,
2013-02-17 10:08:00,28.6,9.4,30.06,NNW,340,24.0,33.0,44,0.00,,,0.00,Wunderground v.1.15,2013-02-17 15:08:00,
2013-02-17 10:13:00,28.7,10.0,30.06,WNW,303,23.0,32.0,45,0.00,,,0.00,Wunderground v.1.15,2013-02-17 15:13:00,
2013-02-17 10:18:00,28.9,9.7,30.06,NNW,347,20.0,32.0,44,0.00,,,0.00,Wunderground v.1.15,2013-02-17 15:18:00,
2013-02-17 10:23:00,28.9,9.7,30.06,NW,310,19.0,22.0,44,0.00,,,0.00,Wunderground v.1.15,2013-02-17 15:23:00,
2013-02-17 10:28:00,29.6,10.3,30.08,NNE,22,16.0,22.0,44,0.00,,,0.00,Wunderground v.1.15,2013-02-17 15:28:00,
2013-02-17 10:33:00,30.0,10.2,30.08,NW,304,16.0,30.0,43,0.00,,,0.00,Wunderground v.1.15,2013-02-17 15:33:00,
2013-02-17 10:38:00,30.5,10.1,30.08,NW,312,18.0,30.0,42,0.00,,,0.00,Wunderground v.1.15,2013-02-17 15:38:00,
2013-02-17 10:43:00,30.5,9.0,30.08,NW,318,15.0,20.0,40,0.00,,,0.00,Wunderground v.1.15,2013-02-17 15:43:00,
2013-02-17 10:48:00,30.6,10.2,30.08,NW,308,17.0,26.0,42,0.00,,,0.00,Wunderground v.1.15,2013-02-17 15:48:00,
2013-02-17 10:53:00,30.7,9.2,30.08,NW,310,18.0,29.0,40,0.00,,,0.00,Wunderground v.1.15,2013-02-17 15:53:00,
2013-02-17 10:58:00,31.0,8.9,30.09,NNW,346,16.0,36.0,39,0.00,,,0.00,Wunderground v.1.15,2013-02-17 15:58:00,
2013-02-17 11:03:00,30.9,8.8,30.09,WNW,301,16.0,26.0,39,0.00,,,0.00,Wunderground v.1.15,2013-02-17 16:03:00,
2013-02-17 11:08:00,31.2,8.5,30.09,NNW,331,18.0,45.0,38,0.00,,,0.00,Wunderground v.1.15,2013-02-17 16:08:00,
2013-02-17 11:13:00,31.4,8.7,30.08,NW,305,20.0,44.0,38,0.00,,,0.00,Wunderground v.1.15,2013-02-17 16:13:00,
2013-02-17 11:18:00,31.9,7.9,30.08,NW,307,19.0,44.0,36,0.00,,,0.00,Wunderground v.1.15,2013-02-17 16:18:00,
2013-02-17 11:23:00,32.3,8.3,30.08,NW,311,21.0,33.0,36,0.00,,,0.00,Wunderground v.1.15,2013-02-17 16:23:00,
2013-02-17 11:28:00,32.0,8.0,30.09,NW,314,22.0,36.0,36,0.00,,,0.00,Wunderground v.1.15,2013-02-17 16:28:00,
2013-02-17 11:34:00,32.5,7.2,30.09,NNW,348,20.0,32.0,34,0.00,,,0.00,Wunderground v.1.15,2013-02-17 16:34:00,
2013-02-17 11:39:00,31.9,6.7,30.09,WNW,297,21.0,34.0,34,0.00,,,0.00,Wunderground v.1.15,2013-02-17 16:39:00,
2013-02-17 11:43:00,32.3,7.7,30.09,NW,326,19.0,22.0,35,0.00,,,0.00,Wunderground v.1.15,2013-02-17 16:43:00,
2013-02-17 11:48:00,33.4,8.0,30.09,North,355,14.0,22.0,34,0.00,,,0.00,Wunderground v.1.15,2013-02-17 16:48:00,
2013-02-17 11:55:00,33.6,6.8,30.09,WNW,288,16.0,31.0,32,0.00,,,0.00,Wunderground v.1.15,2013-02-17 16:55:00,
2013-02-17 12:00:00,33.8,7.0,30.08,NNW,338,20.0,22.0,32,0.00,,,0.00,Wunderground v.1.15,2013-02-17 17:00:00,
2013-02-17 12:05:00,33.6,6.8,30.08,WNW,294,21.0,34.0,32,0.00,,,0.00,Wunderground v.1.15,2013-02-17 17:05:00,
2013-02-17 12:10:00,33.5,6.0,30.08,NW,319,16.0,16.0,31,0.00,,,0.00,Wunderground v.1.15,2013-02-17 17:10:00,
2013-02-17 12:15:00,33.2,6.5,30.09,NW,310,14.0,19.0,32,0.00,,,0.00,Wunderground v.1.15,2013-02-17 17:15:00,
2013-02-17 12:20:00,33.5,6.0,30.09,NW,321,12.0,12.0,31,0.00,,,0.00,Wunderground v.1.15,2013-02-17 17:20:00,
2013-02-17 12:25:00,33.5,6.7,30.09,NW,322,12.0,20.0,32,0.00,,,0.00,Wunderground v.1.15,2013-02-17 17:25:00,
2013-02-17 12:30:00,33.7,5.5,30.08,WNW,296,14.0,23.0,30,0.00,,,0.00,Wunderground v.1.15,2013-02-17 17:30:00,
2013-02-17 12:35:00,33.8,5.6,30.08,NW,319,13.0,31.0,30,0.00,,,0.00,Wunderground v.1.15,2013-02-17 17:35:00,
2013-02-17 12:40:00,33.9,6.4,30.08,NW,309,15.0,16.0,31,0.00,,,0.00,Wunderground v.1.15,2013-02-17 17:40:00,
2013-02-17 12:46:00,34.8,6.5,30.08,NW,321,14.0,25.0,30,0.00,,,0.00,Wunderground v.1.15,2013-02-17 17:46:00,
2013-02-17 12:51:00,35.4,7.0,30.08,NW,309,13.0,24.0,30,0.00,,,0.00,Wunderground v.1.15,2013-02-17 17:51:00,
2013-02-17 12:56:00,35.6,7.2,30.08,NNW,342,12.0,24.0,30,0.00,,,0.00,Wunderground v.1.15,2013-02-17 17:56:00,
2013-02-17 13:01:00,35.6,7.2,30.08,NNW,344,11.0,11.0,30,0.00,,,0.00,Wunderground v.1.15,2013-02-17 18:01:00,
2013-02-17 13:06:00,35.5,5.6,30.08,NNW,341,12.0,14.0,28,0.00,,,0.00,Wunderground v.1.15,2013-02-17 18:06:00,
2013-02-17 13:11:00,35.9,5.9,30.08,NW,317,12.0,34.0,28,0.00,,,0.00,Wunderground v.1.15,2013-02-17 18:11:00,
2013-02-17 13:16:00,35.6,4.8,30.08,WNW,284,14.0,34.0,27,0.00,,,0.00,Wunderground v.1.15,2013-02-17 18:16:00,
2013-02-17 13:21:00,35.3,5.4,30.08,WNW,294,19.0,23.0,28,0.00,,,0.00,Wunderground v.1.15,2013-02-17 18:21:00,
2013-02-17 13:26:00,35.0,5.1,30.08,North,355,20.0,26.0,28,0.00,,,0.00,Wunderground v.1.15,2013-02-17 18:26:00,
2013-02-17 13:31:00,35.4,5.5,30.08,NW,319,15.0,17.0,28,0.00,,,0.00,Wunderground v.1.15,2013-02-17 18:31:00,
2013-02-17 13:36:00,35.5,4.8,30.08,NW,314,14.0,23.0,27,0.00,,,0.00,Wunderground v.1.15,2013-02-17 18:36:00,
2013-02-17 13:42:00,35.7,5.7,30.07,NW,310,15.0,16.0,28,0.00,,,0.00,Wunderground v.1.15,2013-02-17 18:42:00,
2013-02-17 13:48:00,36.6,4.9,30.07,NW,315,13.0,21.0,26,0.00,,,0.00,Wunderground v.1.15,2013-02-17 18:48:00,
2013-02-17 13:53:00,36.5,4.8,30.07,WNW,297,16.0,28.0,26,0.00,,,0.00,Wunderground v.1.15,2013-02-17 18:53:00,
2013-02-17 13:58:00,36.6,4.0,30.08,NW,314,17.0,31.0,25,0.00,,,0.00,Wunderground v.1.15,2013-02-17 18:58:00,
2013-02-17 14:03:00,36.7,5.8,30.08,NE,41,16.0,23.0,27,0.00,,,0.00,Wunderground v.1.15,2013-02-17 19:03:00,
2013-02-17 14:08:00,36.6,4.0,30.08,WNW,294,14.0,32.0,25,0.00,,,0.00,Wunderground v.1.15,2013-02-17 19:08:00,
2013-02-17 14:13:00,36.2,3.7,30.07,North,360,15.0,15.0,25,0.00,,,0.00,Wunderground v.1.15,2013-02-17 19:13:00,
2013-02-17 14:18:00,36.3,5.5,30.07,NW,322,16.0,24.0,27,0.00,,,0.00,Wunderground v.1.15,2013-02-17 19:18:00,
2013-02-17 14:23:00,35.9,5.1,30.07,NNE,18,17.0,36.0,27,0.00,,,0.00,Wunderground v.1.15,2013-02-17 19:23:00,
2013-02-17 14:28:00,35.9,5.1,30.07,WNW,298,20.0,36.0,27,0.00,,,0.00,Wunderground v.1.15,2013-02-17 19:28:00,
2013-02-17 14:34:00,35.6,4.8,30.07,WNW,297,21.0,28.0,27,0.00,,,0.00,Wunderground v.1.15,2013-02-17 19:34:00,
2013-02-17 14:39:00,35.8,5.8,30.07,NW,307,19.0,28.0,28,0.00,,,0.00,Wunderground v.1.15,2013-02-17 19:39:00,
2013-02-17 14:44:00,36.2,6.2,30.07,West,268,19.0,40.0,28,0.00,,,0.00,Wunderground v.1.15,2013-02-17 19:44:00,
2013-02-17 14:49:00,36.6,6.5,30.07,WNW,302,15.0,40.0,28,0.00,,,0.00,Wunderground v.1.15,2013-02-17 19:49:00,
2013-02-17 14:54:00,36.8,6.7,30.07,NNE,15,13.0,19.0,28,0.00,,,0.00,Wunderground v.1.15,2013-02-17 19:54:00,
2013-02-17 14:59:00,36.7,7.4,30.07,WNW,293,15.0,22.0,29,0.00,,,0.00,Wunderground v.1.15,2013-02-17 19:59:00,
2013-02-17 15:04:00,36.9,6.8,30.07,NW,306,16.0,21.0,28,0.00,,,0.00,Wunderground v.1.15,2013-02-17 20:04:00,
2013-02-17 15:09:00,36.6,7.3,30.07,NW,313,16.0,22.0,29,0.00,,,0.00,Wunderground v.1.15,2013-02-17 20:09:00,
2013-02-17 15:14:00,36.6,6.5,30.07,NW,324,17.0,20.0,28,0.00,,,0.00,Wunderground v.1.15,2013-02-17 20:14:00,
2013-02-17 15:20:00,36.8,6.7,30.07,NNW,346,17.0,17.0,28,0.00,,,0.00,Wunderground v.1.15,2013-02-17 20:20:00,
2013-02-17 15:25:00,36.6,7.3,30.07,NW,310,16.0,33.0,29,0.00,,,0.00,Wunderground v.1.15,2013-02-17 20:25:00,
2013-02-17 15:30:00,36.6,7.3,30.07,NW,307,18.0,18.0,29,0.00,,,0.00,Wunderground v.1.15,2013-02-17 20:30:00,
2013-02-17 15:35:00,36.4,6.3,30.07,NW,323,19.0,25.0,28,0.00,,,0.00,Wunderground v.1.15,2013-02-17 20:35:00,
2013-02-17 15:40:00,36.2,6.9,30.07,North,351,15.0,15.0,29,0.00,,,0.00,Wunderground v.1.15,2013-02-17 20:40:00,
2013-02-17 15:46:00,36.1,8.3,30.07,NW,314,14.0,23.0,31,0.00,,,0.00,Wunderground v.1.15,2013-02-17 20:46:00,
2013-02-17 15:51:00,36.7,7.4,30.07,NW,309,16.0,16.0,29,0.00,,,0.00,Wunderground v.1.15,2013-02-17 20:51:00,
2013-02-17 15:56:00,36.5,7.2,30.07,NNW,344,15.0,24.0,29,0.00,,,0.00,Wunderground v.1.15,2013-02-17 20:56:00,
2013-02-17 16:02:00,36.2,7.7,30.07,WNW,284,15.0,18.0,30,0.00,,,0.00,Wunderground v.1.15,2013-02-17 21:02:00,
2013-02-17 16:07:00,36.1,8.3,30.07,NW,311,13.0,18.0,31,0.00,,,0.00,Wunderground v.1.15,2013-02-17 21:07:00,
2013-02-17 16:12:00,36.8,8.2,30.07,WNW,294,13.0,18.0,30,0.00,,,0.00,Wunderground v.1.15,2013-02-17 21:12:00,
2013-02-17 16:18:00,36.3,7.8,30.07,NW,315,13.0,25.0,30,0.00,,,0.00,Wunderground v.1.15,2013-02-17 21:18:00,
2013-02-17 16:23:00,35.9,8.2,30.07,WNW,296,11.0,24.0,31,0.00,,,0.00,Wunderground v.1.15,2013-02-17 21:23:00,
2013-02-17 16:28:00,35.6,7.9,30.08,NW,310,12.0,24.0,31,0.00,,,0.00,Wunderground v.1.15,2013-02-17 21:28:00,
2013-02-17 16:33:00,35.4,7.7,30.08,NW,306,14.0,26.0,31,0.00,,,0.00,Wunderground v.1.15,2013-02-17 21:33:00,
2013-02-17 16:38:00,35.5,8.5,30.08,NW,315,15.0,26.0,32,0.00,,,0.00,Wunderground v.1.15,2013-02-17 21:38:00,
2013-02-17 16:44:00,35.8,8.8,30.08,NW,307,12.0,23.0,32,0.00,,,0.00,Wunderground v.1.15,2013-02-17 21:44:00,
2013-02-17 16:49:00,35.4,9.1,30.08,NW,315,12.0,23.0,33,0.00,,,0.00,Wunderground v.1.15,2013-02-17 21:49:00,
2013-02-17 16:54:00,35.0,8.7,30.08,NNW,331,15.0,25.0,33,0.00,,,0.00,Wunderground v.1.15,2013-02-17 21:54:00,
2013-02-17 16:59:00,34.4,8.9,30.08,NW,323,16.0,25.0,34,0.00,,,0.00,Wunderground v.1.15,2013-02-17 21:59:00,
2013-02-17 17:04:00,33.9,9.1,30.08,NW,309,15.0,20.0,35,0.00,,,0.00,Wunderground v.1.15,2013-02-17 22:04:00,
2013-02-17 17:09:00,33.8,9.0,30.08,NW,323,17.0,30.0,35,0.00,,,0.00,Wunderground v.1.15,2013-02-17 22:09:00,
2013-02-17 17:14:00,33.7,9.5,30.08,NW,309,17.0,31.0,36,0.00,,,0.00,Wunderground v.1.15,2013-02-17 22:14:00,
2013-02-17 17:19:00,33.6,9.4,30.08,NW,325,16.0,31.0,36,0.00,,,0.00,Wunderground v.1.15,2013-02-17 22:19:00,
2013-02-17 17:24:00,33.5,10.0,30.08,WNW,294,14.0,16.0,37,0.00,,,0.00,Wunderground v.1.15,2013-02-17 22:24:00,
2013-02-17 17:29:00,33.5,10.0,30.09,WNW,288,13.0,20.0,37,0.00,,,0.00,Wunderground v.1.15,2013-02-17 22:29:00,
2013-02-17 17:35:00,33.4,9.9,30.09,NW,308,16.0,22.0,37,0.00,,,0.00,Wunderground v.1.15,2013-02-17 22:35:00,
2013-02-17 17:40:00,33.3,10.4,30.09,NW,325,15.0,15.0,38,0.00,,,0.00,Wunderground v.1.15,2013-02-17 22:40:00,
2013-02-17 17:45:00,33.1,10.2,30.10,NNW,327,12.0,15.0,38,0.00,,,0.00,Wunderground v.1.15,2013-02-17 22:45:00,
2013-02-17 17:50:00,33.1,10.8,30.10,West,279,11.0,12.0,39,0.00,,,0.00,Wunderground v.1.15,2013-02-17 22:50:00,
2013-02-17 17:55:00,33.0,10.7,30.10,NW,321,9.0,15.0,39,0.00,,,0.00,Wunderground v.1.15,2013-02-17 22:55:00,
2013-02-17 18:00:00,32.6,10.9,30.11,WNW,296,9.0,12.0,40,0.00,,,0.00,Wunderground v.1.15,2013-02-17 23:00:00,
2013-02-17 18:06:00,32.4,10.7,30.11,NW,313,8.0,12.0,40,0.00,,,0.00,Wunderground v.1.15,2013-02-17 23:06:00,
2013-02-17 18:11:00,32.2,11.1,30.11,NW,314,5.0,8.0,41,0.00,,,0.00,Wunderground v.1.15,2013-02-17 23:11:00,
2013-02-17 18:16:00,32.0,10.9,30.11,West,279,3.0,8.0,41,0.00,,,0.00,Wunderground v.1.15,2013-02-17 23:16:00,
2013-02-17 18:22:00,31.7,11.2,30.11,West,281,4.0,8.0,42,0.00,,,0.00,Wunderground v.1.15,2013-02-17 23:22:00,
2013-02-17 18:27:00,31.6,11.1,30.11,WNW,282,5.0,8.0,42,0.00,,,0.00,Wunderground v.1.15,2013-02-17 23:27:00,
2013-02-17 18:32:00,31.4,10.9,30.11,NNW,336,6.0,9.0,42,0.00,,,0.00,Wunderground v.1.15,2013-02-17 23:32:00,
2013-02-17 18:37:00,31.2,11.3,30.11,NNW,331,9.0,12.0,43,0.00,,,0.00,Wunderground v.1.15,2013-02-17 23:37:00,
2013-02-17 18:42:00,31.0,11.1,30.13,WNW,299,9.0,15.0,43,0.00,,,0.00,Wunderground v.1.15,2013-02-17 23:42:00,
2013-02-17 18:47:00,30.9,11.5,30.13,NNW,327,8.0,15.0,44,0.00,,,0.00,Wunderground v.1.15,2013-02-17 23:47:00,
2013-02-17 18:52:00,30.8,11.4,30.13,NW,325,7.0,10.0,44,0.00,,,0.00,Wunderground v.1.15,2013-02-17 23:52:00,
2013-02-17 18:57:00,30.7,11.8,30.13,NW,325,5.0,10.0,45,0.00,,,0.00,Wunderground v.1.15,2013-02-17 23:57:00,
2013-02-17 19:02:00,30.6,12.2,30.13,NW,324,3.0,8.0,46,0.00,,,0.00,Wunderground v.1.15,2013-02-18 00:02:00,
2013-02-17 19:07:00,30.4,13.5,30.13,NW,323,2.0,8.0,49,0.00,,,0.00,Wunderground v.1.15,2013-02-18 00:07:00,
2013-02-17 19:12:00,30.3,14.3,30.13,NW,306,5.0,8.0,51,0.00,,,0.00,Wunderground v.1.15,2013-02-18 00:12:00,
2013-02-17 19:17:00,30.3,14.3,30.13,NW,306,6.0,11.0,51,0.00,,,0.00,Wunderground v.1.15,2013-02-18 00:17:00,
2013-02-17 19:22:00,30.3,14.8,30.13,NW,305,5.0,8.0,52,0.00,,,0.00,Wunderground v.1.15,2013-02-18 00:22:00,
2013-02-17 19:27:00,30.3,13.9,30.13,NNW,335,6.0,8.0,50,0.00,,,0.00,Wunderground v.1.15,2013-02-18 00:27:00,
2013-02-17 19:32:00,30.1,13.7,30.13,NW,323,6.0,8.0,50,0.00,,,0.00,Wunderground v.1.15,2013-02-18 00:32:00,
2013-02-17 19:37:00,30.1,16.3,30.13,NW,322,3.0,8.0,56,0.00,,,0.00,Wunderground v.1.15,2013-02-18 00:37:00,
2013-02-17 19:43:00,29.9,14.4,30.14,NW,321,1.0,8.0,52,0.00,,,0.00,Wunderground v.1.15,2013-02-18 00:43:00,
2013-02-17 19:48:00,29.7,13.3,30.14,NW,321,1.0,8.0,50,0.00,,,0.00,Wunderground v.1.15,2013-02-18 00:48:00,
2013-02-17 19:53:00,29.6,14.5,30.14,NW,321,1.0,8.0,53,0.00,,,0.00,Wunderground v.1.15,2013-02-18 00:53:00,
2013-02-17 19:58:00,29.5,12.2,30.14,West,276,1.0,8.0,48,0.00,,,0.00,Wunderground v.1.15,2013-02-18 00:58:00,
2013-02-17 20:03:00,29.4,11.6,30.14,West,276,0.0,8.0,47,0.00,,,0.00,Wunderground v.1.15,2013-02-18 01:03:00,
2013-02-17 20:09:00,29.3,12.0,30.14,NNW,327,1.0,8.0,48,0.00,,,0.00,Wunderground v.1.15,2013-02-18 01:09:00,
2013-02-17 20:14:00,29.3,12.0,30.14,NW,309,3.0,8.0,48,0.00,,,0.00,Wunderground v.1.15,2013-02-18 01:14:00,
2013-02-17 20:19:00,29.2,11.9,30.14,NW,309,4.0,8.0,48,0.00,,,0.00,Wunderground v.1.15,2013-02-18 01:19:00,
2013-02-17 20:24:00,29.1,11.8,30.14,NW,309,5.0,8.0,48,0.00,,,0.00,Wunderground v.1.15,2013-02-18 01:24:00,
2013-02-17 20:29:00,29.1,11.8,30.15,NW,309,4.0,8.0,48,0.00,,,0.00,Wunderground v.1.15,2013-02-18 01:29:00,
2013-02-17 20:35:00,29.1,11.8,30.15,NW,309,4.0,12.0,48,0.00,,,0.00,Wunderground v.1.15,2013-02-18 01:35:00,
2013-02-17 20:40:00,29.1,11.8,30.15,NW,317,7.0,7.0,48,0.00,,,0.00,Wunderground v.1.15,2013-02-18 01:40:00,
2013-02-17 20:45:00,29.1,11.8,30.15,NW,317,8.0,11.0,48,0.00,,,0.00,Wunderground v.1.15,2013-02-18 01:45:00,
2013-02-17 20:51:00,29.1,11.8,30.15,NW,317,8.0,8.0,48,0.00,,,0.00,Wunderground v.1.15,2013-02-18 01:51:00,
2013-02-17 20:56:00,29.1,11.8,30.15,NW,317,7.0,8.0,48,0.00,,,0.00,Wunderground v.1.15,2013-02-18 01:56:00,
2013-02-17 21:01:00,29.1,11.8,30.15,NW,316,6.0,8.0,48,0.00,,,0.00,Wunderground v.1.15,2013-02-18 02:01:00,
2013-02-17 21:06:00,29.0,12.2,30.15,NW,316,6.0,8.0,49,0.00,,,0.00,Wunderground v.1.15,2013-02-18 02:06:00,
2013-02-17 21:11:00,28.9,12.1,30.15,NW,316,4.0,8.0,49,0.00,,,0.00,Wunderground v.1.15,2013-02-18 02:11:00,
2013-02-17 21:16:00,28.8,12.0,30.16,NW,316,2.0,8.0,49,0.00,,,0.00,Wunderground v.1.15,2013-02-18 02:16:00,
2013-02-17 21:22:00,28.7,11.9,30.16,NW,316,0.0,8.0,49,0.00,,,0.00,Wunderground v.1.15,2013-02-18 02:22:00,
2013-02-17 21:27:00,28.5,11.7,30.16,NW,316,0.0,8.0,49,0.00,,,0.00,Wunderground v.1.15,2013-02-18 02:27:00,
2013-02-17 21:33:00,28.3,11.6,30.16,NW,316,1.0,8.0,49,0.00,,,0.00,Wunderground v.1.15,2013-02-18 02:33:00,
2013-02-17 21:38:00,28.2,11.9,30.16,NW,316,1.0,8.0,50,0.00,,,0.00,Wunderground v.1.15,2013-02-18 02:38:00,
2013-02-17 21:43:00,28.1,11.8,30.16,NW,316,1.0,8.0,50,0.00,,,0.00,Wunderground v.1.15,2013-02-18 02:43:00,
2013-02-17 21:48:00,28.0,12.2,30.16,NW,316,1.0,8.0,51,0.00,,,0.00,Wunderground v.1.15,2013-02-18 02:48:00,
2013-02-17 21:53:00,27.9,12.1,30.16,NW,316,0.0,8.0,51,0.00,,,0.00,Wunderground v.1.15,2013-02-18 02:53:00,
2013-02-17 21:58:00,27.7,11.9,30.17,NW,316,0.0,8.0,51,0.00,,,0.00,Wunderground v.1.15,2013-02-18 02:58:00,
2013-02-17 22:03:00,27.6,12.2,30.17,NW,316,0.0,8.0,52,0.00,,,0.00,Wunderground v.1.15,2013-02-18 03:03:00,
2013-02-17 22:08:00,27.5,12.6,30.17,NW,316,1.0,8.0,53,0.00,,,0.00,Wunderground v.1.15,2013-02-18 03:08:00,
2013-02-17 22:13:00,27.4,12.1,30.16,NW,316,3.0,8.0,52,0.00,,,0.00,Wunderground v.1.15,2013-02-18 03:13:00,
2013-02-17 22:18:00,27.3,12.0,30.16,NW,316,4.0,8.0,52,0.00,,,0.00,Wunderground v.1.15,2013-02-18 03:18:00,
2013-02-17 22:23:00,27.3,12.0,30.16,NW,316,3.0,8.0,52,0.00,,,0.00,Wunderground v.1.15,2013-02-18 03:23:00,
2013-02-17 22:28:00,27.3,12.0,30.17,NW,316,1.0,8.0,52,0.00,,,0.00,Wunderground v.1.15,2013-02-18 03:28:00,
2013-02-17 22:33:00,27.3,12.0,30.17,NW,316,1.0,8.0,52,0.00,,,0.00,Wunderground v.1.15,2013-02-18 03:33:00,
2013-02-17 22:38:00,27.3,12.0,30.17,NW,316,1.0,8.0,52,0.00,,,0.00,Wunderground v.1.15,2013-02-18 03:38:00,
2013-02-17 22:43:00,27.2,11.9,30.17,NW,316,0.0,8.0,52,0.00,,,0.00,Wunderground v.1.15,2013-02-18 03:43:00,
2013-02-17 22:48:00,27.1,12.2,30.17,NW,316,0.0,8.0,53,0.00,,,0.00,Wunderground v.1.15,2013-02-18 03:48:00,
2013-02-17 22:53:00,27.1,12.2,30.17,NW,316,0.0,8.0,53,0.00,,,0.00,Wunderground v.1.15,2013-02-18 03:53:00,
2013-02-17 22:58:00,26.9,13.3,30.16,NW,316,0.0,8.0,56,0.00,,,0.00,Wunderground v.1.15,2013-02-18 03:58:00,
2013-02-17 23:03:00,26.5,13.7,30.16,NW,316,1.0,8.0,58,0.00,,,0.00,Wunderground v.1.15,2013-02-18 04:03:00,
2013-02-17 23:09:00,26.1,13.7,30.16,NW,316,1.0,8.0,59,0.00,,,0.00,Wunderground v.1.15,2013-02-18 04:09:00,
2013-02-17 23:14:00,25.7,13.3,30.16,NW,316,0.0,8.0,59,0.00,,,0.00,Wunderground v.1.15,2013-02-18 04:14:00,
2013-02-17 23:20:00,25.5,12.8,30.16,NW,316,0.0,8.0,58,0.00,,,0.00,Wunderground v.1.15,2013-02-18 04:20:00,
2013-02-17 23:25:00,25.3,12.6,30.16,NW,316,0.0,8.0,58,0.00,,,0.00,Wunderground v.1.15,2013-02-18 04:25:00,
2013-02-17 23:30:00,25.3,13.0,30.16,NW,316,2.0,2.0,59,0.00,,,0.00,Wunderground v.1.15,2013-02-18 04:30:00,
2013-02-17 23:35:00,25.4,12.7,30.16,NW,316,1.0,8.0,58,0.00,,,0.00,Wunderground v.1.15,2013-02-18 04:35:00,
2013-02-17 23:40:00,25.4,12.7,30.16,NW,316,0.0,8.0,58,0.00,,,0.00,Wunderground v.1.15,2013-02-18 04:40:00,
2013-02-17 23:45:00,25.3,13.0,30.16,NW,316,0.0,8.0,59,0.00,,,0.00,Wunderground v.1.15,2013-02-18 04:45:00,
2013-02-17 23:50:00,25.2,12.9,30.16,NW,316,0.0,8.0,59,0.00,,,0.00,Wunderground v.1.15,2013-02-18 04:50:00,
2013-02-17 23:55:00,25.1,12.8,30.16,NW,316,1.0,8.0,59,0.00,,,0.00,Wunderground v.1.15,2013-02-18 04:55:00,